GW4075 Weather Reports


time (UTC)temp
C
wind
direction
speed
KPH
gust
KPH
rain 1hr
cm
rain 24hr
cm
rain mn
cm
humidity
%
barometer
mb
20260503021502 2 211 0.0 0.0 0.00 0.05 0.05 75 1017.1
20260503020005 3 211 0.0 0.0 0.00 0.05 0.05 73 1016.8
20260503014502 3 211 0.0 0.0 0.00 0.05 0.05 74 1016.7
20260503013003 4 211 0.0 0.0 0.00 0.05 0.05 71 1016.8
20260503011506 5 211 0.0 0.0 0.00 0.05 0.05 64 1016.8
20260503010004 5 211 0.0 0.0 0.00 0.05 0.05 60 1016.7
20260503004503 6 211 0.0 0.0 0.00 0.05 0.05 56 1016.5
20260503003003 7 211 0.0 0.0 0.00 0.05 0.05 51 1016.5
20260503001503 7 248 0.0 0.0 0.00 0.05 0.05 50 1016.6
20260503000007 8 256 0.0 3.2 0.00 0.05 0.05 46 1016.6
20260502234503 8 294 0.0 0.0 0.00 0.05 0.05 48 1016.5
20260502233003 8 194 0.0 0.0 0.00 0.05 0.05 48 1016.6
20260502231502 8 248 0.0 3.2 0.00 0.05 0.05 49 1016.6
20260502230005 8 303 0.0 4.8 0.00 0.05 0.05 45 1016.6
20260502224506 8 248 0.0 3.2 0.00 0.08 0.05 49 1016.6
20260502223006 8 235 0.0 0.0 0.00 0.08 0.05 47 1016.6
20260502221503 8 290 0.0 3.2 0.00 0.08 0.05 45 1016.8
20260502220005 8 219 0.0 3.2 0.00 0.08 0.05 46 1016.7
20260502214504 8 219 0.0 6.4 0.00 0.08 0.05 44 1016.6
20260502213008 8 250 0.0 6.4 0.00 0.08 0.05 48 1016.7
20260502211503 8 328 0.0 6.4 0.00 0.08 0.05 47 1016.8
20260502210007 8 313 0.0 9.7 0.00 0.08 0.05 44 1016.8
20260502204504 8 238 0.0 3.2 0.00 0.08 0.05 44 1016.8
20260502203004 8 329 0.0 3.2 0.00 0.08 0.05 46 1017.0
20260502201503 8 301 0.0 3.2 0.00 0.08 0.05 42 1017.0
20260502200004 8 304 0.0 4.8 0.00 0.08 0.05 44 1017.2
20260502194503 8 235 0.0 12.9 0.00 0.08 0.05 44 1017.3
20260502193004 8 294 0.0 6.4 0.00 0.08 0.05 46 1017.5
20260502191504 9 327 0.0 6.4 0.00 0.08 0.05 43 1017.5
20260502190008 7 240 1.6 11.3 0.00 0.08 0.05 43 1017.7
20260502184504 7 235 0.0 6.4 0.00 0.08 0.05 44 1017.8
20260502183003 7 289 0.0 4.8 0.00 0.08 0.05 49 1018.0
20260502181503 7 333 0.0 4.8 0.00 0.08 0.05 47 1018.2
20260502163007 6 299 0.0 3.2 0.03 0.10 0.05 51 1018.7
20260502161504 7 32 0.0 6.4 0.03 0.10 0.05 52 1018.6
20260502151510 6 336 0.0 4.8 0.00 0.08 0.03 51 1018.7
20260502123002 3 65 0.0 4.8 0.00 0.10 0.03 76 1018.5
20260502121506 3 336 0.0 0.0 0.00 0.10 0.03 83 1018.6
20260502114503 1 74 0.0 0.0 0.00 0.13 0.03 94 1018.4
20260502113002 0 74 0.0 0.0 0.00 0.13 0.03 93 1018.3
20260502111503 0 74 0.0 0.0 0.00 0.13 0.03 93 1018.2
20260502110004 0 74 0.0 0.0 0.00 0.13 0.03 93 1018.1
20260502104502 1 74 0.0 0.0 0.00 0.13 0.03 93 1017.9
20260502103004 1 74 0.0 0.0 0.00 0.13 0.03 92 1017.8
20260502101600 1 74 0.0 0.0 0.00 0.13 0.03 92 1017.8
20260502091504 1 74 0.0 0.0 0.00 0.13 0.03 92 1017.7
20260502071504 2 74 0.0 0.0 0.00 0.15 0.03 88 1017.3
20260502070004 2 115 0.0 0.0 0.00 0.15 0.03 88 1017.3
20260502064510 2 83 0.0 0.0 0.00 0.18 0.03 87 1017.4
20260502063004 2 93 0.0 3.2 0.00 0.18 0.03 86 1017.5
20260502061600 2 89 0.0 3.2 0.00 0.18 0.03 85 1017.5
20260502060006 3 57 0.0 4.8 0.00 0.18 0.03 82 1017.7
20260502054503 4 53 0.0 6.4 0.03 0.18 0.03 79 1017.6
20260502053005 5 76 0.0 6.4 0.03 0.18 0.03 80 1017.4
20260502051504 5 35 0.0 0.0 0.03 0.18 0.03 77 1017.3
20260502050007 5 35 0.0 0.0 0.03 0.18 0.03 76 1017.2
20260502044507 5 35 0.0 0.0 0.00 0.18 0.00 76 1017.1
20260502043003 5 35 0.0 0.0 0.00 0.18 0.00 76 1017.0
20260502041504 5 35 0.0 0.0 0.00 0.18 0.00 76 1016.9
20260502040007 5 35 0.0 0.0 0.00 0.18 0.00 71 1016.8
20260502034503 5 35 0.0 0.0 0.00 0.18 0.18 70 1016.7
20260502033002 5 39 0.0 0.0 0.00 0.18 0.18 71 1016.7
20260502031503 5 83 0.0 0.0 0.00 0.18 0.18 73 1016.7
20260502030005 5 83 0.0 0.0 0.00 0.18 0.18 73 1016.8
20260502024502 6 83 0.0 0.0 0.00 0.18 0.18 72 1016.8
20260502023004 5 83 0.0 0.0 0.00 0.18 0.18 74 1016.8